Jackpot

Texas Poker Multi Jackpot System

Kini Telah hadir Jackpot SUPER ROYAL FLUSH

Kini Telah hadir Jackpot 2000 (khusus table VIP keatas).

Ikutilah global jackpot yang tersedia di system kami, dengan system jackpot terbaru dan pertama di indonesia, anda dapat membeli jackpot dengan harga 100 rupiah saja dan menangkan hadiahnya hingga puluhan juta rupiah.

Jackpot bukanlah suatu keharusan untuk dibeli, namun kami memberikan suatu fitur tambahan untuk member tercinta dari www.qdewi.info.

Terdapat tiga pilihan harga jackpot yang bisa anda beli yaitu :100,500,1000 dan 2000(khusus table VIP Keatas) rupiah.

Hadiah dari Multi jackpot system www.qdewi.info

  1. full house x 10 harga jackpot yang anda beli.
      (contoh:anda membeli 1000 maka:1000 X10 = 10.000)
  2. four of kind x 250 harga jackpot yang anda beli
      (contoh:anda membeli 1000 maka:1000 X250 = 250.000)
  3. Straight flush x 1200
      (contoh:anda membeli 1000 maka:1000 X1200 = 1.200.000)
  4. Royal flush x 10000 harga jackpot yang anda beli
      (contoh:anda membeli 1000 maka:1000 X10000 = 10.000.000)
  5. SUPER ROYAL FLUSH x 30000 harga jackpot yang anda beli
      (contoh:anda membeli 1000 maka:1000 X30000 = 30.000.000)

Kondisi kartu

  1. full house adalah kondisi kartu dimana kartu anda dan kartu tengah dengan total 7 kartu bisa mendapatkan nilai 5 kartu dengan kombinasi 1 tris(three of kind) dan 1 pair, contoh 3 kartu 10 dan 2 kartu 5
  2. Four of kind adalah kondisi kartu dimana kartu anda dan kartu tengah dengan total 7 kartu bisa mendapatkan nilai 5 kartu dengan kombinasi 4 kartu yang sama jumlah dan 1 kartu apapun juga contoh anda mendapatkan 4 buah kartu angka 3 dan 1 kartu apapun.
  3. Staright flush adalah kondisi kartu dimana kartu anda dan kartu tengah dengan total 7 kartu bisa mendapatkan nilai 5 kartu dengan kombinasi seri / staright dengan kembang yang sama contoh : urutan kartu dari angka 5, 6, 7, 8 , 9 10 dengan kembang yg sama misalnya as hati
  4. Royal flush adalah kondisi kartu dimana kartu anda dan kartu tengah dengan total 7 kartu bisa mendapatkan nilai 5 kartu dengan kombinasi seri / staright dengan kembang yang sama tetapi kartu tersebut haruslah dimulai dari 10. contoh 10, Queen, Jack, King dan aces dengan kembang yang sama
  5. Super Royal flush adalah kondisi kartu dimana Kedua kartu anda digabung dengan 3 kartu pertama meja haruslah royal flush. contoh kartu anda 10,Queen kembang sama dan 3 kartu pertama meja adalah Jack, King dan aces dengan kembang yang sama

Demikian adalah penjelasan dari Multi Jackpot www.qdewi.info terima kasih dan selamat bermain salam hoki dari kami

Texas Poker Jackpot Winner

TOP SUPER ROYAL FLUSH
No.TanggalNamaPriceWin
127/05 02:52AS1999Super Royal flush15,000,000
227/05 01:14PMBRJPSuper Royal flush30,000,000
326/05 20:33K2DOX81FU4Super Royal flush15,000,000
426/05 20:18BAUTAY36Super Royal flush3,000,000
526/05 15:22AMATEUR911Super Royal flush3,000,000
TOP ROYAL FLUSH
No.TanggalNamaPriceWin
127/05 11:02KYUU88Royal flush10,000,000
227/05 10:37WIRAH777Royal flush1,000,000
327/05 10:16A5K1974Royal flush5,000,000
427/05 10:07TEMPE1245Royal flush1,000,000
527/05 10:02JANAH244Royal flush10,000,000
TOP STRAIGHT FLUSH
No.TanggalNamaPriceWin
127/05 11:07INIPIDUStraight Flush1,200,000
227/05 11:06KUPRETLUStraight Flush120,000
327/05 11:03BOKSUY99Straight Flush1,200,000
427/05 11:03WADOELLStraight Flush120,000
527/05 10:59KALONG51Straight Flush120,000
LATEST JACKPOT
No.TanggalNamaPriceWin
127/05 11:08TARIKPIRRRFull House10,000
227/05 11:08SEMAR10101Full House1,000
327/05 11:08RIDWAN13Full House5,000
427/05 11:08JACOB00Full House1,000
527/05 11:08BITONIFull House1,000
627/05 11:08DINDAKNDAFull House5,000
727/05 11:08LOMBOK13Full House1,000
827/05 11:08XY3NA9T7BEFull House5,000
927/05 11:07ET666BOOFull House10,000
1027/05 11:07FYYFull House5,000
1127/05 11:07KATHURFull House1,000
1227/05 11:07WEIAZ777Full House20,000
1327/05 11:07ANTHONY123Full House20,000
1427/05 11:07ZENDERPACKFull House5,000
1527/05 11:07J1L4TFull House5,000
1627/05 11:07GOMAKMIEFull House5,000
1727/05 11:07RIDWAN13Full House5,000
1827/05 11:07HOKIL4IFour Of A Kind125,000
1927/05 11:07RAGUYONFull House10,000
2027/05 11:07AENCEKEWEXFull House1,000
2127/05 11:07INIPIDUStraight Flush1,200,000
2227/05 11:07CORSAIR07Full House5,000
2327/05 11:07SIALO776Full House1,000
2427/05 11:07GILL21Full House1,000
2527/05 11:07MONALIZA77Full House1,000
2627/05 11:07ANTICHA99Full House10,000
2727/05 11:07C304D584Full House1,000
2827/05 11:07RANAKA88Full House5,000
2927/05 11:07CNK1M6BRSWFull House1,000
3027/05 11:07GACRETFull House5,000
3127/05 11:07CUPSE212Full House1,000
3227/05 11:07GINTINGSUKFull House1,000
3327/05 11:07OMBET3Full House5,000
3427/05 11:07ZAFRAN69Full House1,000
3527/05 11:07KUAH43Full House1,000
3627/05 11:07LAUK666Full House5,000
3727/05 11:07PRAS0066Full House10,000
3827/05 11:07ROHIMAN498Full House20,000
3927/05 11:07B3B3K2233Full House20,000
4027/05 11:07A352352Full House20,000
4127/05 11:07NAV001Full House20,000
4227/05 11:07ZIVANA06Full House5,000
4327/05 11:07JOKERR_33Full House1,000
4427/05 11:06TITA222Full House10,000
4527/05 11:06ALI40Full House5,000
4627/05 11:06OBEZFull House10,000
4727/05 11:06B4B0S29Full House5,000
4827/05 11:06GLADE23Full House5,000
4927/05 11:06TEH20Full House5,000
5027/05 11:06NONA151Full House5,000

Domino Multi Jackpot System

Ikutilah global jackpot yang tersedia di system kami, dengan system jackpot terbaru dan pertama di indonesia, anda dapat membeli jackpot dengan harga 100 rupiah saja dan menangkan hadiahnya hingga puluhan juta rupiah.

Jackpot bukanlah suatu keharusan untuk dibeli, namun kami memberikan suatu fitur tambahan untuk member tercinta dari www.qdewi.info.

Terdapat tiga pilihan harga jackpot yang bisa anda beli yaitu :100,500 dan 1000 rupiah.

Hadiah dari Multi jackpot system www.qdewi.info

  1. Murni Kecil x 50 harga jackpot yang anda beli.
      (contoh:anda membeli 1000 maka:1000 X 50 = 50.000)
  2. Murni Besar x 50 harga jackpot yang anda beli
      (contoh:anda membeli 1000 maka:1000 X 50 = 50.000)
  3. BALAK x 100 harga jackpot yang anda beli
      (contoh:anda membeli 1000 maka:1000 X 100 = 100.000)
  4. ENAM DEWA x 6666 harga jackpot yang anda beli
      (contoh:anda membeli 1000 maka:1000 X 6666 = 6.666.000)

Demikian adalah penjelasan dari Multi Jackpot www.qdewi.info terima kasih dan selamat bermain salam hoki dari kami

Domino Jackpot Winner

TOP ENAM DEWA
No.TanggalNamaPriceWin
127/05 03:54ARDHIA89murni enam666,600
227/05 03:46T4DLURANGDOmurni enam666,600
327/05 02:12ZHVL493HU7murni enam3,333,000
427/05 01:111288murni enam6,666,000
526/05 22:46JIMBE09murni enam666,600
TOP BALAK
No.TanggalNamaPriceWin
127/05 11:07SADIS44balak10,000
227/05 11:00CHEKO69balak100,000
327/05 11:00BRONKZ17balak100,000
427/05 10:54VIQRY33balak10,000
527/05 10:52E81F43BBbalak10,000
LATEST JACKPOT
No.TanggalNamaPriceWin
127/05 11:08ONCE203murni kecil25,000
227/05 11:08ZOBRImurni besar50,000
327/05 11:07SADIS44balak10,000
427/05 11:07WALAKU21murni besar25,000
527/05 11:05SASORI77murni besar50,000
627/05 11:05RIENIEmurni besar25,000
727/05 11:04MARYANTO70murni besar50,000
827/05 11:04D441Mmurni kecil25,000
927/05 11:03UANG7murni kecil50,000
1027/05 11:00CHEKO69balak100,000
1127/05 11:00BRONKZ17balak100,000
1227/05 10:59ZOBRImurni besar50,000
1327/05 10:59PIYEPIYEKImurni besar5,000
1427/05 10:58STY88murni kecil5,000
1527/05 10:58VIQRY33murni besar25,000
1627/05 10:55GO3585murni besar25,000
1727/05 10:54VIQRY33balak10,000
1827/05 10:52DARKNESSMANmurni kecil25,000
1927/05 10:52E81F43BBbalak10,000
2027/05 10:51REKAGE99murni besar25,000
2127/05 10:51SUSANA777balak100,000
2227/05 10:50LUKAKU858murni kecil50,000
2327/05 10:48ANDREWTHANmurni kecil5,000
2427/05 10:47ANDY84murni kecil50,000
2527/05 10:47MRBEAN109balak10,000
2627/05 10:47LYNN511murni kecil5,000
2727/05 10:46ACHILLES99murni kecil25,000
2827/05 10:45DN4DPINGOmurni kecil5,000
2927/05 10:44HGCmurni kecil25,000
3027/05 10:44RANCHO99balak100,000
3127/05 10:43NJACUXI88murni besar25,000
3227/05 10:43FERMAN21murni besar50,000
3327/05 10:43AADRAGAA69murni kecil50,000
3427/05 10:43ROHYANIbalak50,000
3527/05 10:42NGOPI999murni besar5,000
3627/05 10:35E29T187LT1balak10,000
3727/05 10:34ROSE43balak100,000
3827/05 10:34RIZKI9922murni besar25,000
3927/05 10:32HJBAHRUMbalak100,000
4027/05 10:32KOYONNmurni besar5,000
4127/05 10:30IZKHA6666murni kecil50,000
4227/05 10:30RIZKI9922murni besar25,000
4327/05 10:30SERBASALAHmurni besar50,000
4427/05 10:28BEJO2929murni besar5,000
4527/05 10:25NURALIYAH8murni kecil5,000
4627/05 10:25ABAS37murni besar25,000
4727/05 10:24EDDOE76murni besar25,000
4827/05 10:21IFANBJMmurni kecil25,000
4927/05 10:20JEDER69murni kecil25,000
5027/05 10:20NURALIYAH8murni kecil5,000

Ceme Multi Jackpot System

Jackpot dilihat dari gabungan kartu pemain dengan kartu bandar. Bandar harus membeli jackpot sebanyak jumlah player yang sedang duduk. Sebagai contoh bila terdapat 3 pemain duduk bermain, dan bandar memutuskan untuk membeli jackpot Rp 1.000, maka pada periode tersebut bandar akan membeli jackpot sebanyak 3xRp1.000 = Rp3.000.

Jackpot bukanlah suatu keharusan untuk dibeli, namun kami memberikan suatu fitur tambahan untuk member tercinta dari www.qdewi.info.

Terdapat tiga pilihan harga jackpot yang bisa anda beli yaitu :100,500 dan 1000 rupiah.

Hadiah dari Multi jackpot system www.qdewi.info

  1. Murni Kecil x 50 harga jackpot yang anda beli.
      (contoh:anda membeli 1000 maka:1000 X 50 = 50.000)
  2. Murni Besar x 50 harga jackpot yang anda beli
      (contoh:anda membeli 1000 maka:1000 X 50 = 50.000)
  3. BALAK x 200 harga jackpot yang anda beli
      (contoh:anda membeli 1000 maka:1000 X 200 = 200.000)
  4. ENAM DEWA x 6666 harga jackpot yang anda beli
      (contoh:anda membeli 1000 maka:1000 X 6666 = 6.666.000)

Demikian adalah penjelasan dari Multi Jackpot www.qdewi.info terima kasih dan selamat bermain salam hoki dari kami

Ceme Jackpot Winner

TOP ENAM DEWA
No.TanggalNamaPriceWin
127/05 10:03B9020KEHmurni enam6,666,000
227/05 10:03GICASmurni enam6,666,000
327/05 09:46YE7RA0G1WWmurni enam666,600
427/05 09:43BOIM_AJEmurni enam3,333,000
527/05 09:34PUTATA551murni enam666,600
TOP BALAK
No.TanggalNamaPriceWin
127/05 11:07OTNAWSYbalak200,000
227/05 11:07FATU11balak200,000
327/05 11:06GEMIL12balak200,000
427/05 11:06M_T12Bbalak20,000
527/05 11:05REBON86balak100,000
LATEST JACKPOT
No.TanggalNamaPriceWin
127/05 11:08SUJIANT0murni kecil50,000
227/05 11:07OTNAWSYbalak200,000
327/05 11:07FATU11balak200,000
427/05 11:07QZIL11murni kecil25,000
527/05 11:06AGUSCOY27murni kecil50,000
627/05 11:06GEMIL12balak200,000
727/05 11:06M_T12Bbalak20,000
827/05 11:05OTNAWSYmurni kecil50,000
927/05 11:05REBON86balak100,000
1027/05 11:05HOKIYAHYAmurni besar5,000
1127/05 11:05KEYTAY3balak100,000
1227/05 11:05REMBO699murni besar50,000
1327/05 11:05WIGIANmurni kecil5,000
1427/05 11:04180886murni besar50,000
1527/05 11:04SIHOTANG05murni besar25,000
1627/05 11:04B9020KEHmurni kecil50,000
1727/05 11:04WAYWAY18murni kecil5,000
1827/05 11:04KARAK7murni besar5,000
1927/05 11:04PALOSCIbalak200,000
2027/05 11:04GEUDOKmurni kecil25,000
2127/05 11:04KDJ2murni kecil50,000
2227/05 11:04PIG2VJDCRBmurni kecil50,000
2327/05 11:04QZIL11murni kecil25,000
2427/05 11:04BOKERSKMmurni kecil50,000
2527/05 11:03BXG44G11BDmurni besar50,000
2627/05 11:03NAYLA29murni kecil50,000
2727/05 11:03TR_SQUADmurni besar5,000
2827/05 11:03MARCH1985murni besar25,000
2927/05 11:03BXG44G11BDmurni kecil50,000
3027/05 11:03JEKPUNGSmurni kecil50,000
3127/05 11:02SAKHI83murni besar50,000
3227/05 11:02PYU777murni besar25,000
3327/05 11:02BIENKmurni kecil50,000
3427/05 11:02SURYA050Amurni kecil50,000
3527/05 11:02BIENKmurni kecil50,000
3627/05 11:02GENK_9murni kecil50,000
3727/05 11:02EKASUCI119murni kecil5,000
3827/05 11:02LOBUSONAmurni kecil50,000
3927/05 11:02JAMBAI25murni kecil25,000
4027/05 11:02MARS77murni kecil5,000
4127/05 11:01HARTATAIKmurni besar25,000
4227/05 11:01BOSTUEmurni kecil25,000
4327/05 11:01KDJ2murni kecil50,000
4427/05 11:01AEEDC313balak20,000
4527/05 11:01ANDHI23murni besar50,000
4627/05 11:00OTUONG99murni kecil25,000
4727/05 11:00LESA180179murni kecil5,000
4827/05 11:00KOBE45murni kecil25,000
4927/05 11:00VIRA2015murni kecil5,000
5027/05 11:00G0JEK123murni besar50,000